| time (UTC) | temp F | wind direction | speed MPH | gust MPH | rain 1hr in | rain 24hr in | rain mn in | humidity % | barometer mb |
| 20260509011533 | 84 | 299 | 3.0 | 6.0 | 0.00 | 0.00 | 0.00 | 13 | 1004.9 |
| 20260509010030 | 85 | 299 | 3.0 | 5.0 | 0.00 | 0.00 | 0.00 | 12 | 1004.6 |
| 20260509004529 | 86 | 360 | 3.0 | 6.0 | 0.00 | 0.00 | 0.00 | 10 | 1004.6 |
| 20260509003033 | 86 | 295 | 5.0 | 8.0 | 0.00 | 0.00 | 0.00 | 10 | 1004.5 |
| 20260509001529 | 87 | 317 | 5.0 | 8.0 | 0.00 | 0.00 | 0.00 | 10 | 1004.5 |
| 20260509000028 | 87 | 326 | 5.0 | 11.0 | 0.00 | 0.00 | 0.00 | 11 | 1004.5 |
| 20260508234528 | 88 | 333 | 3.0 | 9.0 | 0.00 | 0.00 | 0.00 | 10 | 1004.4 |
| 20260508233033 | 87 | 323 | 7.0 | 13.0 | 0.00 | 0.00 | 0.00 | 11 | 1004.5 |
| 20260508231527 | 87 | 343 | 4.0 | 13.0 | 0.00 | 0.00 | 0.00 | 10 | 1004.4 |
| 20260508230026 | 87 | 25 | 7.0 | 15.0 | 0.00 | 0.00 | 0.00 | 10 | 1004.4 |
| 20260508224526 | 87 | 340 | 5.0 | 12.0 | 0.00 | 0.00 | 0.00 | 11 | 1004.3 |
| 20260508223026 | 86 | 336 | 3.0 | 7.0 | 0.00 | 0.00 | 0.00 | 12 | 1004.5 |
| 20260508221525 | 87 | 328 | 7.0 | 12.0 | 0.00 | 0.00 | 0.00 | 12 | 1004.6 |
| 20260508220020 | 88 | 359 | 6.0 | 12.0 | 0.00 | 0.00 | 0.00 | 14 | 1004.8 |
| 20260508214519 | 88 | 238 | 2.0 | 8.0 | 0.00 | 0.00 | 0.00 | 14 | 1005.0 |
| 20260508213016 | 87 | 360 | 7.0 | 12.0 | 0.00 | 0.00 | 0.00 | 14 | 1005.3 |
| 20260508211522 | 87 | 316 | 6.0 | 15.0 | 0.00 | 0.00 | 0.00 | 15 | 1005.3 |
| 20260508210013 | 87 | 316 | 6.0 | 11.0 | 0.00 | 0.00 | 0.00 | 14 | 1005.6 |
| 20260508204511 | 87 | 327 | 2.0 | 7.0 | 0.00 | 0.00 | 0.00 | 15 | 1006.0 |
| 20260508203007 | 85 | 360 | 4.0 | 11.0 | 0.00 | 0.00 | 0.00 | 16 | 1005.9 |
| 20260508201505 | 85 | 288 | 4.0 | 8.0 | 0.00 | 0.00 | 0.00 | 19 | 1006.5 |
| 20260508200002 | 85 | 224 | 2.0 | 11.0 | 0.00 | 0.00 | 0.00 | 20 | 1006.7 |
| 20260508194606 | 84 | 224 | 4.0 | 12.0 | 0.00 | 0.00 | 0.00 | 20 | 1006.8 |
| 20260508193105 | 84 | 88 | 2.0 | 6.0 | 0.00 | 0.00 | 0.00 | 23 | 1007.0 |
| 20260508191557 | 84 | 143 | 3.0 | 6.0 | 0.00 | 0.00 | 0.00 | 23 | 1007.3 |
| 20260508190057 | 83 | 161 | 3.0 | 7.0 | 0.00 | 0.00 | 0.00 | 22 | 1007.5 |
| 20260508184554 | 84 | 305 | 2.0 | 8.0 | 0.00 | 0.00 | 0.00 | 25 | 1007.7 |
| 20260508183050 | 83 | 288 | 3.0 | 8.0 | 0.00 | 0.00 | 0.00 | 29 | 1008.1 |
| 20260508181546 | 84 | 233 | 1.0 | 9.0 | 0.00 | 0.00 | 0.00 | 32 | 1008.2 |
| 20260508180044 | 81 | 150 | 2.0 | 5.0 | 0.00 | 0.00 | 0.00 | 35 | 1008.5 |
| 20260508174547 | 80 | 276 | 3.0 | 8.0 | 0.00 | 0.00 | 0.00 | 38 | 1008.9 |
| 20260508173035 | 78 | 360 | 2.0 | 6.0 | 0.00 | 0.00 | 0.00 | 45 | 1009.0 |
| 20260508171532 | 76 | 252 | 2.0 | 7.0 | 0.00 | 0.00 | 0.00 | 48 | 1009.3 |
| 20260508170029 | 75 | 220 | 3.0 | 9.0 | 0.00 | 0.00 | 0.00 | 54 | 1009.5 |
| 20260508164525 | 74 | 179 | 3.0 | 10.0 | 0.00 | 0.00 | 0.00 | 58 | 1009.7 |
| 20260508163020 | 72 | 180 | 4.0 | 9.0 | 0.00 | 0.00 | 0.00 | 62 | 1010.0 |
| 20260508161519 | 71 | 217 | 3.0 | 8.0 | 0.00 | 0.00 | 0.00 | 66 | 1010.0 |
| 20260508160016 | 69 | 302 | 3.0 | 6.0 | 0.00 | 0.00 | 0.00 | 70 | 1010.2 |
| 20260508154510 | 67 | 263 | 2.0 | 7.0 | 0.00 | 0.00 | 0.00 | 75 | 1010.4 |
| 20260508153008 | 65 | 219 | 3.0 | 8.0 | 0.00 | 0.00 | 0.00 | 80 | 1010.6 |
| 20260508151504 | 63 | 226 | 6.0 | 6.0 | 0.00 | 0.00 | 0.00 | 86 | 1010.6 |
| 20260508150100 | 0 | 0.0 | 0.0 | 0.00 | 0.00 | 0.00 | 1010.6 | ||
| 20260508144556 | 60 | 222 | 4.0 | 9.0 | 0.00 | 0.00 | 0.00 | 90 | 1010.9 |
| 20260508143059 | 60 | 219 | 4.0 | 9.0 | 0.00 | 0.00 | 0.00 | 90 | 1010.9 |
| 20260508141549 | 60 | 200 | 4.0 | 9.0 | 0.00 | 0.00 | 0.00 | 91 | 1010.9 |
| 20260508140054 | 59 | 211 | 2.0 | 9.0 | 0.00 | 0.00 | 0.00 | 91 | 1010.9 |
| 20260508134551 | 59 | 360 | 3.0 | 7.0 | 0.00 | 0.00 | 0.00 | 91 | 1010.8 |
| 20260508133042 | 59 | 206 | 2.0 | 7.0 | 0.00 | 0.00 | 0.00 | 91 | 1010.6 |
| 20260508131547 | 58 | 206 | 3.0 | 6.0 | 0.00 | 0.00 | 0.00 | 91 | 1010.6 |
| 20260508130059 | 58 | 207 | 3.0 | 8.0 | 0.00 | 0.00 | 0.00 | 90 | 1010.7 |
| 20260508124547 | 57 | 210 | 2.0 | 6.0 | 0.00 | 0.00 | 0.00 | 90 | 1010.5 |
| 20260508123050 | 57 | 200 | 5.0 | 11.0 | 0.00 | 0.00 | 0.00 | 89 | 1010.3 |
| 20260508121541 | 57 | 210 | 3.0 | 7.0 | 0.00 | 0.00 | 0.00 | 89 | 1010.1 |
| 20260508120031 | 57 | 212 | 2.0 | 5.0 | 0.00 | 0.00 | 0.00 | 88 | 1010.1 |
| 20260508114530 | 57 | 212 | 2.0 | 7.0 | 0.00 | 0.00 | 0.00 | 88 | 1010.2 |
| 20260508113027 | 56 | 212 | 3.0 | 7.0 | 0.00 | 0.00 | 0.00 | 87 | 1010.4 |
| 20260508111526 | 56 | 228 | 3.0 | 7.0 | 0.00 | 0.00 | 0.00 | 86 | 1010.6 |
| 20260508110027 | 56 | 231 | 3.0 | 9.0 | 0.00 | 0.00 | 0.00 | 84 | 1010.6 |
| 20260508104527 | 56 | 199 | 5.0 | 11.0 | 0.00 | 0.00 | 0.00 | 82 | 1010.6 |
| 20260508103026 | 56 | 195 | 4.0 | 10.0 | 0.00 | 0.00 | 0.00 | 82 | 1010.6 |
| 20260508101523 | 56 | 202 | 7.0 | 13.0 | 0.00 | 0.00 | 0.00 | 83 | 1010.4 |
| 20260508100019 | 57 | 158 | 7.0 | 14.0 | 0.00 | 0.00 | 0.00 | 82 | 1010.5 |
| 20260508094536 | 56 | 201 | 4.0 | 9.0 | 0.00 | 0.00 | 0.00 | 79 | 1010.6 |
| 20260508093013 | 56 | 360 | 3.0 | 9.0 | 0.00 | 0.00 | 0.00 | 77 | 1010.8 |
| 20260508091514 | 55 | 219 | 3.0 | 7.0 | 0.00 | 0.00 | 0.00 | 74 | 1010.7 |
| 20260508090004 | 55 | 360 | 3.0 | 6.0 | 0.00 | 0.00 | 0.00 | 73 | 1010.7 |
| 20260508084559 | 56 | 360 | 3.0 | 5.0 | 0.00 | 0.00 | 0.00 | 72 | 1010.9 |
| 20260508083054 | 56 | 224 | 3.0 | 7.0 | 0.00 | 0.00 | 0.00 | 71 | 1011.0 |
| 20260508081605 | 56 | 221 | 1.0 | 4.0 | 0.00 | 0.00 | 0.00 | 70 | 1011.3 |
| 20260508080054 | 56 | 219 | 3.0 | 6.0 | 0.00 | 0.00 | 0.00 | 70 | 1011.1 |
| 20260508074542 | 57 | 217 | 3.0 | 7.0 | 0.00 | 0.00 | 0.00 | 69 | 1011.3 |
| 20260508073045 | 57 | 360 | 4.0 | 6.0 | 0.00 | 0.00 | 0.00 | 68 | 1011.4 |
| 20260508071546 | 57 | 207 | 3.0 | 10.0 | 0.00 | 0.00 | 0.00 | 68 | 1011.4 |
| 20260508070048 | 58 | 212 | 4.0 | 7.0 | 0.00 | 0.00 | 0.00 | 67 | 1011.5 |
| 20260508064534 | 58 | 200 | 3.0 | 5.0 | 0.00 | 0.00 | 0.00 | 66 | 1011.9 |
| 20260508063023 | 59 | 198 | 2.0 | 5.0 | 0.00 | 0.00 | 0.00 | 64 | 1012.0 |
| 20260508061521 | 59 | 198 | 2.0 | 5.0 | 0.00 | 0.00 | 0.00 | 63 | 1012.0 |
| 20260508060021 | 60 | 202 | 4.0 | 8.0 | 0.00 | 0.00 | 0.00 | 62 | 1012.0 |
| 20260508054513 | 60 | 217 | 3.0 | 7.0 | 0.00 | 0.00 | 0.00 | 61 | 1012.1 |
| 20260508053012 | 61 | 179 | 4.0 | 9.0 | 0.00 | 0.00 | 0.00 | 60 | 1012.1 |
| 20260508051512 | 62 | 181 | 5.0 | 11.0 | 0.00 | 0.00 | 0.00 | 59 | 1012.2 |
| 20260508050011 | 62 | 213 | 6.0 | 12.0 | 0.00 | 0.00 | 0.00 | 58 | 1012.0 |
| 20260508044512 | 63 | 198 | 6.0 | 12.0 | 0.00 | 0.00 | 0.00 | 57 | 1012.0 |
| 20260508043014 | 64 | 179 | 7.0 | 14.0 | 0.00 | 0.00 | 0.00 | 55 | 1012.1 |
| 20260508041510 | 64 | 192 | 8.0 | 17.0 | 0.00 | 0.00 | 0.00 | 53 | 1012.2 |
| 20260508040011 | 65 | 205 | 6.0 | 13.0 | 0.00 | 0.00 | 0.00 | 52 | 1011.9 |
| 20260508034513 | 66 | 196 | 7.0 | 14.0 | 0.00 | 0.00 | 0.00 | 51 | 1011.7 |
| 20260508033009 | 66 | 179 | 6.0 | 11.0 | 0.00 | 0.00 | 0.00 | 49 | 1011.6 |
| 20260508031508 | 67 | 191 | 5.0 | 8.0 | 0.00 | 0.00 | 0.00 | 47 | 1011.4 |
| 20260508030109 | 68 | 179 | 4.0 | 7.0 | 0.00 | 0.00 | 0.00 | 46 | 1011.1 |
| 20260508024619 | 68 | 169 | 3.0 | 6.0 | 0.00 | 0.00 | 0.00 | 44 | 1011.1 |
| 20260508023055 | 69 | 165 | 3.0 | 7.0 | 0.00 | 0.00 | 0.00 | 43 | 1010.9 |
| 20260508021555 | 70 | 168 | 5.0 | 8.0 | 0.00 | 0.00 | 0.00 | 42 | 1010.7 |
| 20260508020107 | 71 | 184 | 4.0 | 7.0 | 0.00 | 0.00 | 0.00 | 40 | 1010.5 |
| 20260508014604 | 72 | 179 | 5.0 | 8.0 | 0.00 | 0.00 | 0.00 | 39 | 1010.4 |
| 20260508013106 | 72 | 198 | 6.0 | 12.0 | 0.00 | 0.00 | 0.00 | 38 | 1010.2 |